Regional Weather Roundup
Issued by NWS

Home | Current Version | Previous Version | Text Only | Print | Product List | Glossary On
Versions: 1 2 3 4 5 6 7 8 9 10 11 12 13 14 15 16 17 18 19 20 21 22 23 24 25 26 27 28 29 30 31 32 33 34 35 36 37 38 39 40 41 42 43 44 45 46 47 48 49 50
000
ASUS43 KDTX 270910
RWRMI
MICHIGAN HOURLY REGIONAL WEATHER ROUNDUP
NATIONAL WEATHER SERVICE DETROIT/PONTIAC MI
500 AM EDT MON APR 27 2015

NOTE: "FAIR" INDICATES FEW OR NO CLOUDS BELOW 12,000 FEET WITH NO
SIGNIFICANT WEATHER AND/OR OBSTRUCTION TO VISIBILITY.

MIZ047>049-052>055-059>063-066>070-074>076-081>083-271000-
SOUTHEAST LOWER MICHIGAN

CITY           SKY/WX    TMP DP  RH WIND       PRES   REMARKS
ADRIAN         CLOUDY    38  33  82 NW5       29.94S
ALMA           CLOUDY    42  33  70 NW9       29.97S
ANN ARBOR      CLOUDY    42  32  67 NW7       29.93S
BAD AXE        LGT RAIN  37  35  92 N12       29.95R
DETROIT CITY   CLOUDY    44  31  60 NW7       29.92S
DETROIT        CLOUDY    43  33  68 W7        29.93S
FLINT          CLOUDY    44  34  67 N7        29.94S
HILLSDALE      MOCLDY    35  32  88 CALM      29.93F
HOWELL         CLOUDY    40  34  79 NW7       29.93S

CITY           SKY/WX    TMP DP  RH WIND       PRES   REMARKS
JACKSON        CLOUDY    39  32  76 NW5       29.95R
LAMBERTVILLE   CLOUDY    37  34  87 CALM      29.93F
LANSING        CLOUDY    40  32  73 NW7       29.97S
LAPEER         NOT AVBL
MASON          CLOUDY    40  32  74 NW7       29.95S
MONROE         CLOUDY    37  34  87 CALM      29.91S
PONTIAC        CLOUDY    41  33  73 NW9       29.91R
PORT HOPE        N/A     38  35  89 N7        29.92S
PORT HURON     RAIN      39  36  87 N6        29.92R
TRI CITIES     LGT RAIN  43  38  82 NE8       29.97R
YPSILANTI      CLOUDY    44  33  65 NW9       29.93S
$$
MIZ043>046-050>051-056>058-064>065-071>073-077>080-271000-
SOUTHWEST LOWER MICHIGAN

CITY           SKY/WX    TMP DP  RH WIND       PRES   REMARKS
BATTLE CREEK   CLOUDY    41  31  67 N8        29.97S
BENTON HARBOR  CLEAR     38  34  85 VRB6      30.02R
BIG RAPIDS     PTCLDY    38  31  76 NW3       29.99S
COLDWATER      MOCLDY    37  30  77 N5        29.96S
HOLLAND        CLOUDY    43  32  65 NW7       30.02R
GRAND RAPIDS   MOCLDY    40  30  67 NW7       29.99R
KALAMAZOO      CLOUDY    40  32  73 N8        29.98R
MARSHALL       CLOUDY    39  32  74 NW5       29.96R
MUSKEGON       PTCLDY    41  32  70 NW7       30.02S
$$
MIZ016>042-271000-
NORTHERN LOWER MICHIGAN

CITY           SKY/WX    TMP DP  RH WIND       PRES   REMARKS
ALPENA         CLOUDY    40  33  76 NW9       29.98S
BEAVER ISLAND  CLOUDY    41  33  74 N6        30.04S
BELLAIRE       CLOUDY    41  33  73 N6        30.02S
CADILLAC       CLOUDY    38  33  82 NW7       29.98S
CHARLEVOIX     CLOUDY    38  34  87 N7        30.05F
FRANKFORT      CLOUDY    42  32  68 N7        30.05R
GAYLORD        CLOUDY    38  33  82 N8        29.98S
GRAYLING       CLOUDY    40  32  74 CALM      29.99R
HARBOR SPRINGS CLOUDY    40  32  74 N7        30.02S
HOUGHTON LAKE  CLOUDY    40  32  73 N9        29.97S
MANISTEE       CLOUDY    39  32  75 NW7       30.04S
OSCODA         CLOUDY    40  34  79 N10       29.96R
PELLSTON       CLOUDY    41  33  73 N10       30.02S
TRAVERSE CITY  CLOUDY    41  34  76 N9        30.02R
$$
MIZ007>008-015-271000-
EASTERN UPPER MICHIGAN

CITY           SKY/WX    TMP DP  RH WIND       PRES   REMARKS
KINROSS        CLOUDY    37  36  93 NW8       30.01S
MACKINAC ISLAN CLOUDY    39  34  80 N10       30.02R
NEWBERRY       CLOUDY    38  34  82 N7        30.04R
S. S. MARIE    CLOUDY    41  32  70 N9        30.01S
$$
MIZ004>006-011>014-085-271000-
CENTRAL UPPER MICHIGAN

CITY           SKY/WX    TMP DP  RH WIND       PRES   REMARKS
MANISTIQUE     CLOUDY    39  34  83 NW5       30.06R
ESCANABA       CLEAR     36  27  69 NW3       30.09R
MENOMINEE      CLEAR     37  27  65 N7        30.09S
SAWYER-GWINN   CLEAR     35  28  75 N5        30.09R
$$
MIZ001>003-009>011-084-271000-
WESTERN UPPER MICHIGAN

CITY           SKY/WX    TMP DP  RH WIND       PRES   REMARKS
IRON MOUNTAIN  CLEAR     35  27  72 NW7       30.09R
HOUGHTON       CLEAR     33  27  78 W8        30.13R
COPPER HARBOR    N/A     37  29  72 N3        30.13S
IRONWOOD       CLEAR     27  25  93 W3        30.15S
$$

ABBREVIATIONS USED IN REMARKS
   TC - TEMPERATURE IN CELSIUS
  WCI - WIND CHILL INDEX
   HX - HEAT INDEX
  VSB - VISIBILITY



USA.gov is the U.S. government's official web portal to all federal, state and local government web resources and services.